Home > Weather > Abu Dhabi > Past weeks

Flag for United Arab Emirates Weather for the Past 2 Weeks in Abu Dhabi, Abu Dhabi, United Arab Emirates

Now
68 °F

Sunny.


Feels Like: 68 °F
Forecast: 62 / 70 °F
Wind: 17 mph from Northwest

Location: Abu Dhabi Bateen Airport

Current Time: Feb 9, 2016 at 7:00:41 PM

Latest Report: Feb 9, 2016 at 6:00 PM


Visibility: 10 mi

Pressure: 30.04 "Hg

Humidity: 46%

Dew point: 46 °F

Location of Abu DhabiLocation

Historic Weather in Abu Dhabi — Graph

°F

Abu Dhabi Temperature Yesterday

Maximum temperature yesterday: 82 °F (at 2:00 PM)
Minimum temperature yesterday: 57 °F (at 5:00 AM)
Average temperature yesterday: 69 °F

High & Low Weather Summary for the Past Weeks

 TemperatureHumidityPressure
High82 °F (Jan 25, 5:00 PM)100% (Feb 7, 8:00 AM)30.27 "Hg (Feb 7, 8:00 AM)
Low54 °F (Feb 7, 8:00 AM)13% (Feb 8, 3:00 PM)29.92 "Hg (Jan 25, 5:00 PM)
Average67 °F60%30.10 "Hg
* Reported Jan 25 5:00 PM — Feb 9 5:00 PM, Abu Dhabi, Weather by CustomWeather, © 2016

Note: Actual official high and low records may vary slightly from our data, if they occured in-between our weather recording intervals... More about our weather records

Advertising

Abu Dhabi Weather History for the Previous 24 Hours

 ConditionsComfort  
Time TempWeatherWind HumidityBarometerVisibility
5:00 PM
Tue, Feb 9
70 °FPassing clouds.17 mph50%30.04 "HgN/A
4:00 PM72 °FSunny.17 mph47%30.04 "Hg10 mi
3:00 PM72 °FPassing clouds.17 mph47%30.04 "HgN/A
2:00 PM73 °FPassing clouds.16 mph47%30.07 "HgN/A
1:00 PM73 °FSunny.17 mph41%30.09 "Hg10 mi
12:00 PM73 °FSunny.18 mph47%30.09 "Hg10 mi
11:00 AM72 °FPassing clouds.17 mph65%30.12 "HgN/A
10:00 AM72 °FPassing clouds.12 mph69%30.12 "Hg5 mi
9:00 AM70 °FPassing clouds.10 mph73%30.09 "Hg5 mi
8:00 AM64 °FClear.3 mph78%30.07 "Hg5 mi
7:00 AM66 °FPassing clouds.5 mph64%30.07 "HgN/A
6:00 AM64 °FPassing clouds.5 mph52%30.04 "HgN/A
5:00 AM63 °FPassing clouds.3 mph56%30.04 "HgN/A
4:00 AM61 °FPassing clouds.3 mph36%30.01 "HgN/A
3:00 AM61 °FClear.2 mph36%30.01 "Hg10 mi
2:00 AM66 °FClear.1 mph30%30.01 "Hg10 mi
1:00 AM66 °FClear.3 mph35%30.01 "Hg10 mi
12:00 AM66 °FClear.3 mph49%30.04 "Hg10 mi
11:00 PM
Mon, Feb 8
68 °FClear.1 mph56%30.04 "Hg10 mi
10:00 PM68 °FPassing clouds.3 mph56%30.04 "HgN/A
9:00 PM70 °FClear.2 mph50%30.04 "Hg10 mi
8:00 PM72 °FClear.2 mph36%30.01 "Hg10 mi
7:00 PM73 °FPassing clouds.3 mph38%30.01 "HgN/A
Weather by CustomWeather, © 2016

See weather overviewHow to use our weather pages